This demonstration page uses our WeatherBlox Daily Observations layout. Learn more.

Left ArrowRight Arrow

Hourly Observations for December 20, 2021

Temp ( °F °C ) Dew Point ( °F °C ) Humidity (%) Winds ( mph kmh ) Pressure ( in mb ) Visibility ( mi km ) Precip ( " mm )
12:53 am 00:53 Clear 72 22.2 64 17.8 76 76 SE 6 9 29.99 1016 10 16 0.00 0.00
1:53 am 01:53 Clear 72 22.2 63 17.2 73 73 ESE 8 13 29.96 1015 10 16 0.00 0.00
2:53 am 02:53 Mostly Clear 74 23.3 64 17.8 71 71 E 7 11 29.95 1014 10 16 0.00 0.00
3:53 am 03:53 Clear 72 22.2 63 17.2 73 73 NE 5 7 29.92 1013 10 16 0.00 0.00
4:53 am 04:53 Clear 70 21.1 63 17.2 79 79 NE 3 6 29.93 1014 10 16 0.00 0.00
5:53 am 05:53 Clear 72 22.2 64 17.8 76 76 ESE 8 13 29.93 1014 10 16 0.00 0.00
6:03 am 06:03 Clear 72 22.2 64 17.8 76 76 ESE 7 11 29.89 1012 10 16 0.00 0.00
6:53 am 06:53 Partly Cloudy 72 22.2 63 17.2 73 73 E 5 7 29.95 1014 10 16 0.00 0.00
7:53 am 07:53 Partly Cloudy 73 22.8 65 18.3 76 76 NE 3 6 29.96 1015 10 16 0.00 0.00
8:53 am 08:53 Partly Cloudy 78 25.6 63 17.2 60 60 Calm 29.98 1015 10 16 0.00 0.00
9:53 am 09:53 Partly Cloudy 79 26.1 64 17.8 60 60 WNW 5 7 29.98 1015 10 16 0.00 0.00
10:53 am 10:53 Partly Cloudy 81 27.2 65 18.3 58 58 W 8 13 29.97 1015 10 16 0.00 0.00
11:53 am 11:53 Partly Cloudy 83 28.3 65 18.3 55 55 SW 8 13 29.96 1015 10 16 0.00 0.00
12:53 pm 12:53 Partly Cloudy 83 28.3 67 19.4 59 59 S 14 22 29.91 1013 10 16 0.00 0.00
1:53 pm 13:53 Mostly Cloudy 80 26.7 68 20 67 67 SSE 12 19 29.90 1013 10 16 0.00 0.00
2:53 pm 14:53 Mostly Cloudy 81 27.2 66 18.9 61 61 S 13 20 29.88 1012 10 16 0.00 0.00
3:53 pm 15:53 Mostly Cloudy 80 26.7 67 19.4 64 64 SSE 12 19 29.89 1012 10 16 0.00 0.00
4:53 pm 16:53 Mostly Cloudy 79 26.1 67 19.4 67 67 SSE 8 13 29.88 1012 10 16 0.00 0.00
5:53 pm 17:53 Partly Cloudy 78 25.6 61 16.1 56 56 NNE 10 17 29.89 1012 10 16 0.00 0.00
6:53 pm 18:53 Partly Cloudy 76 24.4 58 14.4 54 54 NNE 10 17 29.89 1012 10 16 0.00 0.00
7:53 pm 19:53 Partly Cloudy 77 25 62 16.7 60 60 Calm 29.91 1013 10 16 0.00 0.00
8:53 pm 20:53 Clear 73 22.8 62 16.7 69 69 N 3 6 29.91 1013 10 16 0.00 0.00
9:53 pm 21:53 Clear 74 23.3 63 17.2 69 69 Calm 29.91 1013 10 16 0.00 0.00
10:53 pm 22:53 Mostly Clear 72 22.2 63 17.2 73 73 SE 3 6 29.93 1014 10 16 0.00 0.00
11:53 pm 23:53 Clear 70 21.1 62 16.7 76 76 NNE 7 11 29.92 1013 10 16 0.00 0.00

Powered by Vaisala Xweather